Oklahoma City, OK

8:27 AM CDT on October 18, 2017 (GMT -0500)
Will Rogers World

Weather History for KOKC - November, 2013

Change the Weather History Date:

Saturday, November 9, 2013

  Actual Average Record
Temperature  
Mean Temperature 57 °F 54 °F  
Max Temperature 68 °F 65 °F 82 °F (1980)
Min Temperature 46 °F 43 °F 25 °F (1955)
Degree Days  
Heating Degree Days 8 12  
Month to date heating degree days 103 92  
Since 1 July heating degree days 267 256  
Cooling Degree Days 0 0  
Month to date cooling degree days 0 7  
Year to date cooling degree days 2069 2099  
Growing Degree Days 7 (Base 50)    
Moisture  
Dew Point 42 °F    
Average Humidity 60    
Maximum Humidity 77    
Minimum Humidity 42    
Precipitation  
Precipitation 0.00 in 0.08 in 0.98 in (1919)
Month to date precipitation 0.46 0.73  
Year to date precipitation 51.02 33.39  
Snow  
Snow 0.00 in 0.00 in T in (1977)
Month to date snowfall 0.0 0.0  
Since 1 July snowfall 0.0 T  
Snow Depth -    
Sea Level Pressure  
Sea Level Pressure 30.11 in    
Wind  
Wind Speed 10 mph (SSE)    
Max Wind Speed 17 mph    
Max Gust Speed 21 mph    
Visibility 10 miles    
Events      
T = Trace of Precipitation, MM = Missing Value Source: NWS Daily Summary

Daily Weather History Graph

Daily Weather History Graph

Search for Another Location

Airport or City:

Trip Planner

Search our weather history database for the weather conditions in past years. The results will help you decide how hot, cold, wet, or windy it might be!

Date:

Astronomy

Nov. 09, 2013 Rise Set
Actual Time 6:59 AM CST 5:28 PM CST
Civil Twilight 6:33 AM CST 5:54 PM CST
Nautical Twilight 6:02 AM CST 6:25 PM CST
Astronomical Twilight 5:32 AM CST 6:55 PM CST
Moon 12:39 PM CST (11/9) 11:56 PM CST (11/9)
Length of Visible Light 11h 21m
Length of Day
10h 28m
Waxing Crescent, 44% of the Moon is Illuminated
Nov 9
Waxing Crescent
Nov 9
First Quarter
Nov 17
Full
Nov 25
Last Quarter
Dec 2
New

Hourly Weather History & Observations

Time (CST) Temp. Windchill Dew Point Humidity Pressure Visibility Wind Dir Wind Speed Gust Speed Precip Events Conditions
12:52 AM 50.0 °F - 35.1 °F 57% 30.05 in 10.0 mi South 11.5 mph - N/A   Partly Cloudy
1:52 AM 48.0 °F - 36.0 °F 63% 30.04 in 10.0 mi South 9.2 mph - N/A   Partly Cloudy
2:52 AM 48.0 °F - 37.9 °F 68% 30.03 in 10.0 mi South 12.7 mph - N/A   Partly Cloudy
3:52 AM 48.0 °F - 37.9 °F 68% 30.03 in 10.0 mi South 13.8 mph - N/A   Partly Cloudy
4:52 AM 46.9 °F - 39.0 °F 74% 30.04 in 10.0 mi South 10.4 mph - N/A   Partly Cloudy
5:52 AM 46.9 °F - 39.0 °F 74% 30.05 in 10.0 mi South 11.5 mph - N/A   Scattered Clouds
6:52 AM 46.0 °F 41.4 °F 39.0 °F 76% 30.06 in 10.0 mi SSE 9.2 mph - N/A   Partly Cloudy
7:52 AM 48.0 °F - 41.0 °F 77% 30.09 in 10.0 mi South 10.4 mph - N/A   Partly Cloudy
8:52 AM 55.0 °F - 42.1 °F 62% 30.10 in 10.0 mi South 15.0 mph - N/A   Partly Cloudy
9:52 AM 60.1 °F - 41.0 °F 49% 30.11 in 10.0 mi South 15.0 mph - N/A   Partly Cloudy
10:52 AM 62.1 °F - 41.0 °F 46% 30.12 in 10.0 mi South 8.1 mph - N/A   Partly Cloudy
11:52 AM 64.0 °F - 42.1 °F 45% 30.11 in 10.0 mi SSE 9.2 mph - N/A   Partly Cloudy
12:52 PM 66.0 °F - 43.0 °F 43% 30.10 in 10.0 mi SSE 11.5 mph 16.1 mph N/A   Partly Cloudy
1:52 PM 66.9 °F - 43.0 °F 42% 30.09 in 10.0 mi ESE 8.1 mph - N/A   Partly Cloudy
2:52 PM 66.9 °F - 44.1 °F 44% 30.10 in 10.0 mi SSE 6.9 mph 16.1 mph N/A   Partly Cloudy
3:52 PM 66.0 °F - 44.1 °F 45% 30.10 in 10.0 mi SSE 8.1 mph - N/A   Partly Cloudy
4:52 PM 64.0 °F - 45.0 °F 50% 30.12 in 10.0 mi SE 6.9 mph - N/A   Partly Cloudy
5:52 PM 57.0 °F - 44.1 °F 62% 30.13 in 10.0 mi ESE 5.8 mph - N/A   Partly Cloudy
6:52 PM 57.0 °F - 45.0 °F 64% 30.16 in 10.0 mi East 9.2 mph - N/A   Partly Cloudy
7:52 PM 55.9 °F - 46.0 °F 69% 30.19 in 10.0 mi East 9.2 mph - N/A   Partly Cloudy
8:52 PM 53.1 °F - 46.0 °F 77% 30.21 in 10.0 mi ESE 6.9 mph - N/A   Partly Cloudy
9:52 PM 55.0 °F - 46.9 °F 74% 30.22 in 10.0 mi ESE 6.9 mph - N/A   Mostly Cloudy
10:52 PM 54.0 °F - 46.9 °F 77% 30.23 in 10.0 mi ESE 6.9 mph - N/A   Mostly Cloudy
11:52 PM 52.0 °F - 46.0 °F 80% 30.23 in 10.0 mi ESE 5.8 mph - N/A   Mostly Cloudy